User: anonymous   Login
Location: Gipe Farm
(40.9466°N, 95.5370°W)
Time: 19:57:41
(UTC-05:00)
Language:

Cosmos 2082 Rocket - Orbit

View from above orbital plane
View from above orbital plane
View from above satellite
View from above satellite

Ground track
Ground track

The orbit data is extracted from the following two-line orbital elements,

1 20625U 90046B   15185.60657172 -.00000074  00000-0 -13742-4 0  9992
2 20625 070.9983 206.7501 0012036 114.7237 033.0560 14.14582515296922
Epoch (UTC): 04 July 2015 14:33:27
Eccentricity: 0.0012036
inclination: 70.9983°
perigee height: 835 km
apogee height: 852 km
right ascension of ascending node: 206.7501°
argument of perigee: 114.7237°
revolutions per day: 14.14582515
mean anomaly at epoch: 33.0560°
orbit number at epoch: 29692

The dashed part of the orbit path shows where the satellite is in the earth's shadow,  

DLR